Simultaneous Nadir Overpasses (SNOs) Predictions

Prediction of SNOs between LANDSAT-8 and METOP-B Satellite Orbit:

Table of predicted SNOs for the next 14.0 days since TLE Epoch: 7/6/2019
Index Date (LANDSAT-8) Time (LANDSAT-8) Lat,Lon (LANDSAT-8) SZA (LANDSAT-8 ) Date (METOP-B) Time (METOP-B) Lat,Lon (METOP-B) SZA (METOP-B ) Distance(km) Time Diff (sec)
1 07/07/2019 05:15:21 -81.16, -38.25 119.35 07/07/2019 05:14:34 -81.15, -38.18 119.37 1.21 47
2 07/07/2019 06:04:47 81.16, 129.50 60.67 07/07/2019 06:05:14 81.16, 129.42 60.67 1.37 27
3 07/10/2019 00:49:36 -81.15, 28.14 119.05 07/10/2019 00:48:56 -81.15, 28.03 119.09 2.03 40
4 07/10/2019 01:39:02 81.16,-164.13 60.97 07/10/2019 01:39:35 81.17,-164.00 61.00 2.58 33
5 07/12/2019 20:23:52 -81.15, 94.51 118.70 07/12/2019 20:23:18 -81.15, 94.60 118.70 1.62 34
6 07/12/2019 21:13:17 81.18, -97.42 61.37 07/12/2019 21:13:57 81.17, -97.42 61.39 0.34 40
7 07/15/2019 15:58:08 -81.14, 160.87 118.30 07/15/2019 15:57:41 -81.15, 160.79 118.32 1.32 27
8 07/15/2019 16:47:33 81.17, -31.09 61.77 07/15/2019 16:48:20 81.17, -31.25 61.77 2.68 47
9 07/18/2019 11:32:22 -81.16,-132.44 117.80 07/18/2019 11:32:01 -81.16,-132.28 117.79 2.64 21




NCC Satellite Simultaneous Nadir Overpasses (SNOs) Prediction Service
